Regional Weather Roundup
Issued by NWS Sioux Falls, SD

Home | Current Version | Previous Version | Graphics & Text | Print | Product List | Glossary On
Versions: 1 2 3 4 5 6 7 8 9 10 11 12 13 14 15 16 17 18 19 20 21 22 23 24 25 26 27 28 29 30 31 32 33 34 35 36 37 38 39 40 41 42 43 44 45 46 47 48 49 50
000
ASUS43 KFSD 271302
RWRFSD

WEATHER ROUNDUP FOR SE SOUTH DAKOTA/SW MINNESOTA/NW IOWA
NATIONAL WEATHER SERVICE SIOUX FALLS SD
700 AM CST THU NOV 27 2014

NOTE: "FAIR" INDICATES FEW OR NO CLOUDS BELOW 12,000 FEET WITH NO
SIGNIFICANT WEATHER AND OR OBSTRUCTIONS TO VISIBILITY.


SDZ038>040-050-052>070-271400-
SOUTHEAST SOUTH DAKOTA

CITY           SKY/WX    TMP DP  RH WIND       PRES   REMARKS
CHAMBERLAIN    CLOUDY    10   4  77 SE12      30.39F WCI  -5
HURON          PTCLDY    -6 -10  83 E5        30.46F WCI -17
MADISON        FAIR      -8 -11  84 CALM      30.43F
MITCHELL       MOCLDY     0  -6  76 E7        30.47F WCI -13
SIOUX FALLS    PTCLDY    -5 -10  79 CALM      30.47F
WINNER         CLOUDY    17   8  67 SE14      30.33F WCI   3
YANKTON        CLOUDY     9   0  66 E7        30.50S WCI  -3
$$

MNZ071-072-080-081-089-090-097-098-271400-
SOUTHWEST MINNESOTA

CITY           SKY/WX    TMP DP  RH WIND       PRES   REMARKS
FAIRMONT       PTCLDY    -8 -15  71 NW9       30.47F WCI -25
JACKSON        PTCLDY    -9 -15  77 N5        30.46F WCI -21
LUVERNE        CLOUDY    -4  -9  77 NW3       30.48S
MARSHALL       PTCLDY    -9 -15  77 NW6       30.49F WCI -23
MONTEVIDEO     PTCLDY    -9 -15  77 CALM      30.54S
PIPESTONE      MOCLDY    -6 -13  71 CALM      30.43S
REDWOOD FALLS  PTCLDY   -11 -15  82 NW9       30.52F WCI -29
TRACY          PTCLDY    -8 -13  80 W6        30.49F WCI -21
WINDOM         PTCLDY    -9 -15  77 NW9       30.47F WCI -27
WORTHINGTON    MOCLDY    -9 -11  92 CALM      30.45F
$$

IAZ001>003-012>014-020>022-031-032-NEZ013-014-SDZ071-271400-
NORTHWEST IOWA

CITY           SKY/WX    TMP DP  RH WIND       PRES   REMARKS
DENISON        CLOUDY     3  -9  55 VRB3G12   30.49R
ESTHERVILLE    PTCLDY   -10 -14  82 NW10      30.48S WCI -29
SIOUX CITY     CLOUDY     9  -6  50 N6        30.53R WCI  -1
SPENCER        PTCLDY   N/A N/A N/A N8        30.49S
$$

ABBREVIATIONS USED IN REMARKS
   TC - TEMPERATURE IN CELSIUS
  WCI - WIND CHILL INDEX
   HX - HEAT INDEX
  VSB - VISIBILITY



USA.gov is the U.S. government's official web portal to all federal, state and local government web resources and services.